North Newton, KS

11:21 AM CST on February 26, 2017 (GMT -0600)
Newton City County

Weather History for KEWK - March, 2013

Change the Weather History Date:

Wednesday, March 27, 2013

  Actual Average Record
Temperature  
Mean Temperature 44 °F -  
Max Temperature 57 °F 58 °F 73 °F (2012)
Min Temperature 30 °F 36 °F 24 °F (2009)
Degree Days  
Heating Degree Days 22    
Moisture  
Dew Point 26 °F    
Average Humidity 50    
Maximum Humidity 70    
Minimum Humidity 35    
Precipitation  
Precipitation 0.00 in - - ()
Sea Level Pressure  
Sea Level Pressure 30.14 in    
Wind  
Wind Speed 13 mph (SE)    
Max Wind Speed 23 mph    
Max Gust Speed 29 mph    
Visibility 10 miles    
Events      
Averages and records for this station are not official NWS values.
T = Trace of Precipitation, MM = Missing Value Source: NWS Daily Summary

Daily Weather History Graph

Daily Weather History Graph

Search for Another Location

Airport or City:

Trip Planner

Search our weather history database for the weather conditions in past years. The results will help you decide how hot, cold, wet, or windy it might be!

Date:

Astronomy

Mar. 27, 2013 Rise Set
Actual Time 7:21 AM CDT 7:47 PM CDT
Civil Twilight 6:55 AM CDT 8:14 PM CDT
Nautical Twilight 6:24 AM CDT 8:45 PM CDT
Astronomical Twilight 5:52 AM CDT 9:17 PM CDT
Moon 8:31 PM CDT (3/27) 7:13 AM CDT (3/27)
Length of Visible Light 13h 19m
Length of Day
12h 26m
Full, 100% of the Moon is Illuminated
Mar 27
Full
Apr 2
Last Quarter
Apr 10
New
Apr 18
First Quarter
Apr 25
Full

Hourly Weather History & Observations

Time (CDT) Temp. Windchill Dew Point Humidity Pressure Visibility Wind Dir Wind Speed Gust Speed Precip Events Conditions
12:15 AM 30.2 °F 20.2 °F 21.2 °F 69% 30.21 in 10.0 mi SE 12.7 mph - N/A   Clear
12:35 AM 30.2 °F 20.2 °F 21.2 °F 69% 30.20 in 10.0 mi SE 12.7 mph - N/A   Clear
12:55 AM 30.2 °F 20.8 °F 21.2 °F 69% 30.20 in 10.0 mi SE 11.5 mph - N/A   Clear
1:15 AM 32.0 °F 23.6 °F 21.2 °F 64% 30.20 in 10.0 mi SE 10.4 mph - N/A   Clear
1:35 AM 32.0 °F 23.6 °F 21.2 °F 64% 30.20 in 10.0 mi SE 10.4 mph - N/A   Partly Cloudy
1:55 AM 32.0 °F 23.6 °F 21.2 °F 64% 30.20 in 10.0 mi ESE 10.4 mph - N/A   Mostly Cloudy
2:15 AM 33.8 °F 25.8 °F 21.2 °F 60% 30.19 in 10.0 mi ESE 10.4 mph - N/A   Mostly Cloudy
2:35 AM 33.8 °F 25.8 °F 21.2 °F 60% 30.19 in 10.0 mi ESE 10.4 mph - N/A   Overcast
2:55 AM 33.8 °F 25.3 °F 21.2 °F 60% 30.18 in 10.0 mi ESE 11.5 mph - N/A   Mostly Cloudy
3:15 AM 33.8 °F 24.3 °F 21.2 °F 60% 30.18 in 10.0 mi SE 13.8 mph - N/A   Scattered Clouds
3:35 AM 33.8 °F 24.3 °F 21.2 °F 60% 30.17 in 10.0 mi SE 13.8 mph - N/A   Scattered Clouds
3:55 AM 33.8 °F 25.3 °F 21.2 °F 60% 30.17 in 10.0 mi SE 11.5 mph - N/A   Mostly Cloudy
4:15 AM 33.8 °F 24.3 °F 21.2 °F 60% 30.16 in 10.0 mi SSE 13.8 mph - N/A   Mostly Cloudy
4:35 AM 35.6 °F 27.1 °F 21.2 °F 56% 30.17 in 10.0 mi SE 12.7 mph - N/A   Mostly Cloudy
4:55 AM 35.6 °F 26.6 °F 21.2 °F 56% 30.17 in 10.0 mi SE 13.8 mph 19.6 mph N/A   Mostly Cloudy
5:15 AM 35.6 °F 28.0 °F 21.2 °F 56% 30.18 in 10.0 mi ESE 10.4 mph - N/A   Overcast
5:35 AM 35.6 °F 27.1 °F 21.2 °F 56% 30.17 in 10.0 mi ESE 12.7 mph - N/A   Overcast
5:55 AM 35.6 °F 25.9 °F 21.2 °F 56% 30.14 in 10.0 mi SE 16.1 mph - N/A   Mostly Cloudy
6:15 AM 35.6 °F 25.5 °F 21.2 °F 56% 30.14 in 10.0 mi SE 17.3 mph - N/A   Overcast
6:35 AM 37.4 °F 27.8 °F 21.2 °F 52% 30.14 in 10.0 mi SE 17.3 mph 24.2 mph N/A   Overcast
6:55 AM 37.4 °F 27.8 °F 21.2 °F 52% 30.14 in 10.0 mi SE 17.3 mph 21.9 mph N/A   Overcast
7:15 AM 35.6 °F 25.2 °F 21.2 °F 56% 30.14 in 10.0 mi SE 18.4 mph 21.9 mph N/A   Overcast
7:35 AM 37.4 °F 27.5 °F 21.2 °F 52% 30.14 in 10.0 mi SE 18.4 mph - N/A   Overcast
7:55 AM 37.4 °F 27.2 °F 21.2 °F 52% 30.14 in 10.0 mi SE 19.6 mph - N/A   Overcast
8:15 AM 37.4 °F 27.5 °F 21.2 °F 52% 30.14 in 10.0 mi SSE 18.4 mph 25.3 mph N/A   Mostly Cloudy
8:35 AM 37.4 °F 27.5 °F 21.2 °F 52% 30.14 in 10.0 mi SE 18.4 mph 24.2 mph N/A   Clear
8:55 AM 37.4 °F 27.5 °F 21.2 °F 52% 30.14 in 10.0 mi SE 18.4 mph - N/A   Clear
9:15 AM 39.2 °F 31.2 °F 23.0 °F 52% 30.15 in 10.0 mi SSE 13.8 mph 21.9 mph N/A   Clear
9:35 AM 39.2 °F 29.6 °F 23.0 °F 52% 30.15 in 10.0 mi SE 19.6 mph - N/A   Clear
9:55 AM 41.0 °F 32.2 °F 23.0 °F 49% 30.15 in 10.0 mi SSE 18.4 mph 25.3 mph N/A   Clear
10:15 AM 42.8 °F 34.5 °F 24.8 °F 49% 30.15 in 10.0 mi SSE 18.4 mph 24.2 mph N/A   Clear
10:35 AM 42.8 °F 33.8 °F 24.8 °F 49% 30.14 in 10.0 mi SSE 21.9 mph 27.6 mph N/A   Clear
10:55 AM 44.6 °F 36.9 °F 24.8 °F 46% 30.14 in 10.0 mi SSE 18.4 mph 26.5 mph N/A   Clear
11:15 AM 46.4 °F 39.5 °F 26.6 °F 46% 30.13 in 10.0 mi SSE 17.3 mph 25.3 mph N/A   Clear
11:35 AM 48.2 °F - 26.6 °F 43% 30.13 in 10.0 mi South 20.7 mph 28.8 mph N/A   Clear
11:55 AM 50.0 °F - 26.6 °F 40% 30.13 in 10.0 mi South 23.0 mph - N/A   Clear
12:15 PM 51.8 °F - 26.6 °F 38% 30.13 in 10.0 mi South 19.6 mph 28.8 mph N/A   Clear
12:35 PM 53.6 °F - 26.6 °F 35% 30.13 in 10.0 mi South 20.7 mph 26.5 mph N/A   Clear
12:55 PM 53.6 °F - 28.4 °F 38% 30.13 in 10.0 mi South 17.3 mph - N/A   Clear
1:15 PM 53.6 °F - 26.6 °F 35% 30.12 in 10.0 mi South 17.3 mph 24.2 mph N/A   Clear
1:35 PM 53.6 °F - 26.6 °F 35% 30.12 in 10.0 mi SSW 15.0 mph 24.2 mph N/A   Clear
1:55 PM 53.6 °F - 28.4 °F 38% 30.11 in 10.0 mi SW 12.7 mph 20.7 mph N/A   Clear
2:15 PM 55.4 °F - 28.4 °F 36% 30.11 in 10.0 mi SSW 15.0 mph 21.9 mph N/A   Clear
2:35 PM 55.4 °F - 28.4 °F 36% 30.11 in 10.0 mi SSW 13.8 mph 18.4 mph N/A   Clear
2:55 PM 55.4 °F - 30.2 °F 38% 30.10 in 10.0 mi SSW 11.5 mph 17.3 mph N/A   Clear
3:15 PM 55.4 °F - 30.2 °F 38% 30.10 in 10.0 mi SW 10.4 mph 17.3 mph N/A   Clear
3:35 PM 55.4 °F - 30.2 °F 38% 30.10 in 10.0 mi SSW 6.9 mph 16.1 mph N/A   Clear
3:55 PM 55.4 °F - 30.2 °F 38% 30.10 in 10.0 mi SW 11.5 mph 16.1 mph N/A   Clear
4:15 PM 57.2 °F - 30.2 °F 36% 30.10 in 10.0 mi SSW 11.5 mph 16.1 mph N/A   Clear
4:35 PM 57.2 °F - 30.2 °F 36% 30.09 in 10.0 mi WSW 11.5 mph - N/A   Clear
4:55 PM 57.2 °F - 30.2 °F 36% 30.09 in 10.0 mi South 9.2 mph - N/A   Clear
5:15 PM 57.2 °F - 30.2 °F 36% 30.09 in 10.0 mi South 10.4 mph - N/A   Clear
5:35 PM 57.2 °F - 30.2 °F 36% 30.09 in 10.0 mi South 10.4 mph - N/A   Clear
5:55 PM 57.2 °F - 30.2 °F 36% 30.09 in 10.0 mi South 12.7 mph - N/A   Clear
6:15 PM 57.2 °F - 30.2 °F 36% 30.10 in 10.0 mi SSW 4.6 mph - N/A   Clear
6:35 PM 57.2 °F - 30.2 °F 36% 30.10 in 10.0 mi SW 3.5 mph - N/A   Clear
6:55 PM 57.2 °F - 32.0 °F 38% 30.10 in 10.0 mi SW 4.6 mph - N/A   Clear
7:15 PM 55.4 °F - 32.0 °F 41% 30.10 in 10.0 mi Calm Calm - N/A   Clear
7:35 PM 55.4 °F - 32.0 °F 41% 30.11 in 10.0 mi Calm Calm - N/A   Clear
7:55 PM 53.6 °F - 32.0 °F 44% 30.12 in 10.0 mi NNE 5.8 mph - N/A   Clear
8:15 PM 50.0 °F - 30.2 °F 47% 30.12 in 10.0 mi NNE 6.9 mph - N/A   Clear
8:35 PM 48.2 °F - 30.2 °F 50% 30.12 in 10.0 mi NNE 8.1 mph - N/A   Clear
8:55 PM 48.2 °F - 30.2 °F 50% 30.13 in 10.0 mi North 8.1 mph - N/A   Clear
9:15 PM 48.2 °F - 30.2 °F 50% 30.14 in 10.0 mi NE 6.9 mph - N/A   Clear
9:35 PM 48.2 °F - 28.4 °F 46% 30.14 in 10.0 mi NNE 8.1 mph - N/A   Clear
9:55 PM 46.4 °F 41.9 °F 30.2 °F 53% 30.15 in 10.0 mi NE 9.2 mph - N/A   Clear
10:15 PM 42.8 °F 38.6 °F 30.2 °F 61% 30.16 in 10.0 mi ENE 6.9 mph - N/A   Clear
10:35 PM 42.8 °F 39.3 °F 30.2 °F 61% 30.16 in 10.0 mi ENE 5.8 mph - N/A   Clear
10:55 PM 42.8 °F 38.6 °F 30.2 °F 61% 30.16 in 10.0 mi ENE 6.9 mph - N/A   Clear
11:15 PM 39.2 °F 35.0 °F 30.2 °F 70% 30.17 in 10.0 mi ENE 5.8 mph - N/A   Clear
11:35 PM 41.0 °F 35.8 °F 30.2 °F 65% 30.17 in 10.0 mi NE 8.1 mph - N/A   Clear
11:55 PM 39.2 °F 35.0 °F 30.2 °F 70% 30.17 in 10.0 mi ENE 5.8 mph - N/A   Clear